Location: *
(49.5667°N, 1.3667°W)
Time: 10:38:38
(UTC+00:00)

USA 245 - Pass Details

Date: 20 September 2019
Orbit: 266 x 999 km, 97.9° (Epoch: 04 October)

Event Time Altitude Azimuth Distance (km) Brightness Sun altitude
Exits shadow 21:07:42 76° 157° (SSE) 972 4.2 -27.6°
Maximum altitude 21:08:13 88° 78° (ENE) 943 4.3 -27.7°
Drops below altitude 10° 21:13:53 10° 347° (NNW) 2,474 7.3 -28.4°
Sets 21:16:06 0° 347° (NNW) 3,319 8.1 -28.6°
